Theta_e
304 305 305 306 305 306 306 307 307 307 306 307 307 306 304 302 302 301 298 298 296 295 294 293 293 292 291 291 292 291 290 288 287 287 287 286 286 285 286 286 285 283 283 283 282 283 283 283 283 283 283 283 282 282 282 281 281 281 281 283 284 283 284 283 281 280 281 282 283 282 283 283 283 283 283 283 284 284 286 285 285 284 284 285 285
304 304 304 304 305 305 304 305 306 305 305 305 304 302 300 300 297 296 297 293 294 293 292 291 291 291 291 290 289 288 288 288 287 288 287 286 284 284 284 285 284 283 283 283 283 283 283 283 283 282 282 282 282 282 281 281 281 281 281 280 280 280 281 282 281 280 279 281 280 282 281 282 281 283 282 282 283 284 283 283 284 284 284 284 284
303 303 303 303 303 302 301 301 302 303 302 301 299 298 297 295 295 296 294 292 291 292 291 290 290 291 290 289 289 288 288 287 286 287 286 286 285 284 284 284 284 284 283 283 283 282 283 283 282 281 281 282 281 281 281 281 281 281 281 280 280 280 280 280 280 279 279 280 281 280 281 281 281 282 283 283 283 283 282 282 283 283 284 284 283
301 301 301 299 298 298 299 299 300 300 299 298 297 295 294 294 294 294 293 292 291 289 290 290 290 290 289 288 288 287 287 286 286 286 286 285 285 285 284 284 284 284 283 283 283 283 282 282 281 281 281 282 281 281 282 281 281 281 280 280 280 280 280 280 280 280 280 279 280 280 281 281 281 282 283 283 282 282 282 282 283 282 283 283 283
299 298 298 296 296 296 296 297 297 297 296 295 293 293 293 293 293 292 291 290 290 289 288 289 289 289 289 288 288 287 287 286 286 285 285 285 285 284 284 284 283 283 283 283 283 282 282 282 281 281 281 281 281 281 282 281 281 280 280 280 280 280 279 280 280 280 280 279 280 281 282 281 281 281 282 281 281 281 281 281 281 282 282 283 283
297 297 296 296 295 295 295 295 295 294 293 292 292 292 292 292 292 291 291 290 289 289 289 288 289 288 288 288 287 287 286 286 286 285 285 284 284 284 284 283 283 283 282 282 282 282 282 282 282 282 281 281 281 281 281 280 280 280 280 279 279 280 280 280 281 281 281 281 280 279 281 280 280 280 281 280 280 279 280 281 282 282 282 282 282
296 296 296 295 295 293 293 293 293 292 292 292 291 292 292 291 292 291 290 290 289 288 288 288 288 288 287 287 286 286 285 285 285 284 284 284 284 284 283 283 283 282 282 282 282 282 282 282 282 282 281 281 281 280 280 280 280 279 279 279 280 281 281 281 281 281 281 280 280 280 279 280 280 279 280 281 280 280 279 279 280 282 282 281 281
295 295 295 294 293 292 291 291 292 292 291 291 292 291 291 291 291 290 289 289 289 288 288 287 286 287 286 286 285 285 285 284 284 284 284 284 284 283 283 283 282 282 282 282 282 281 281 281 281 281 281 281 281 280 280 280 279 279 279 280 281 281 281 281 281 280 279 279 279 279 280 279 279 279 280 280 279 279 281 280 278 279 280 281 281
294 294 293 293 292 291 291 291 291 291 290 291 290 290 290 290 289 289 288 288 288 287 287 286 285 285 284 284 284 284 285 284 284 284 284 284 284 283 283 282 282 281 281 281 281 281 281 281 281 281 282 282 283 282 283 283 281 280 281 281 281 281 281 281 280 280 279 279 279 280 279 278 279 278 278 278 278 278 280 281 280 280 280 280 280
293 293 293 292 291 290 290 290 290 290 290 290 290 289 289 288 287 287 287 286 286 285 285 285 284 284 283 283 284 285 285 285 285 287 286 284 283 283 282 282 282 281 281 280 280 280 280 280 280 282 282 282 281 282 282 283 283 283 282 282 282 281 281 280 280 280 279 278 278 278 277 277 278 278 278 279 280 281 280 280 279 279 279 279 280
293 293 293 291 290 290 290 290 290 290 290 289 288 287 286 286 286 285 285 284 284 284 284 283 283 283 283 283 284 285 285 286 288 289 289 287 283 282 281 281 281 281 280 280 280 280 280 280 279 280 280 281 280 281 282 282 283 283 284 284 283 282 280 279 279 280 279 278 279 278 278 277 278 279 279 280 280 280 280 279 279 278 278 276 275
293 293 292 290 290 290 290 289 289 289 288 287 286 286 285 285 285 284 283 283 283 283 283 282 282 282 282 283 284 284 285 289 290 289 288 287 285 282 281 281 281 280 280 280 280 279 279 279 280 280 280 280 280 280 280 282 283 283 284 284 284 284 284 282 280 279 279 278 278 278 278 278 278 279 279 280 280 280 279 279 279 278 277 276 276
292 291 290 289 289 289 289 288 288 287 287 286 285 284 284 283 283 282 282 282 282 282 282 282 281 281 282 282 283 284 285 290 289 288 287 287 285 283 281 281 280 280 280 280 280 279 279 279 279 280 279 280 280 279 280 280 282 283 284 283 283 283 283 284 284 282 281 279 278 278 279 279 278 279 281 280 280 278 279 278 278 278 278 277 276
290 290 288 288 288 288 288 288 287 286 284 284 283 283 283 283 282 282 281 281 281 281 281 281 280 280 281 281 282 283 284 288 289 287 286 286 285 283 280 280 280 280 280 279 279 279 279 279 278 278 279 279 279 279 280 281 282 282 282 281 281 282 283 283 283 283 282 280 280 278 280 281 279 280 280 281 279 278 278 277 278 277 277 276 277
288 288 288 287 287 287 286 286 285 284 283 282 282 282 282 281 281 281 281 281 280 280 280 280 280 279 280 281 282 283 284 288 288 287 286 285 284 282 280 280 280 279 279 279 279 279 279 279 279 278 278 278 279 281 281 282 282 282 281 281 281 281 282 281 280 280 280 281 281 280 281 281 280 280 280 281 280 280 279 279 279 278 277 278 278
286 286 286 285 285 285 285 284 284 283 282 282 282 282 281 281 280 280 280 279 279 279 278 279 279 278 279 280 281 282 285 288 287 286 285 285 283 280 279 279 279 279 279 279 279 279 279 279 279 278 278 278 280 283 283 283 281 281 280 280 280 280 279 280 281 282 282 281 281 280 280 280 281 280 281 280 280 280 280 279 278 277 276 275 274
286 286 286 285 285 284 284 284 283 282 282 282 281 281 281 280 280 280 279 279 279 278 278 278 278 278 278 279 280 281 282 285 286 285 284 284 281 279 279 279 279 278 278 278 279 279 279 279 279 278 278 279 281 283 284 283 281 280 279 278 277 275 275 278 281 282 282 281 281 281 281 281 282 282 282 282 280 280 277 275 274 275 274 272 272
287 286 286 285 284 284 284 284 283 282 282 282 281 281 280 280 279 279 279 278 278 277 277 277 276 276 277 277 278 279 279 283 285 284 283 282 280 279 279 278 278 278 278 278 278 279 279 279 279 278 278 279 282 283 284 282 279 278 276 274 273 274 276 279 279 278 279 279 279 279 279 280 280 280 280 280 280 279 275 273 275 275 273 272 271
287 286 285 284 284 284 283 283 283 282 281 281 281 280 280 279 278 278 278 278 277 276 276 276 275 275 275 276 278 278 279 282 285 284 283 282 280 279 278 278 278 278 277 277 278 278 278 279 279 279 280 281 283 283 283 281 278 276 274 274 274 274 276 276 275 273 273 273 274 274 275 276 275 275 275 278 278 277 277 276 276 274 272 272 272
285 284 284 284 283 283 282 282 282 281 281 280 280 279 279 278 277 277 277 277 276 276 275 275 274 274 274 275 275 276 277 279 282 284 282 282 281 279 278 278 277 277 277 277 276 277 278 277 278 280 281 282 282 282 281 281 278 276 275 273 274 273 276 274 273 273 272 272 273 274 273 273 272 272 272 273 274 276 276 277 276 275 273 273 273
284 284 283 283 282 282 281 281 281 280 280 280 279 278 277 277 277 276 275 275 275 274 274 274 273 273 273 273 274 275 277 279 282 284 283 282 282 280 278 278 278 277 277 277 277 276 277 277 277 279 281 281 280 280 280 279 278 276 275 275 275 276 276 271 270 273 271 272 272 271 270 270 270 270 271 271 273 275 276 276 276 276 275 273 272
283 282 282 281 281 280 280 279 279 279 278 278 277 276 275 276 276 275 275 275 274 273 273 273 272 272 272 273 274 275 277 278 280 282 283 283 282 281 279 279 279 277 277 276 276 276 276 277 277 279 281 280 279 279 278 278 277 275 275 277 277 277 273 271 269 270 270 270 269 268 268 268 268 268 269 270 272 273 274 274 275 275 275 275 274
281 281 280 280 279 279 278 278 278 277 277 277 276 274 274 274 273 274 274 274 273 272 272 272 272 272 272 273 274 274 275 276 280 280 282 282 282 281 281 280 281 278 277 275 276 276 277 277 278 280 279 278 278 277 277 277 275 275 277 276 276 275 272 268 269 268 267 267 267 267 267 267 267 267 268 270 271 272 273 273 273 274 274 275 276
280 280 279 279 278 277 277 277 276 276 276 275 275 273 273 273 273 273 274 274 273 272 272 272 272 272 272 272 273 274 274 275 278 280 280 282 282 282 282 281 281 278 277 275 276 276 277 278 279 279 278 277 276 276 275 275 275 275 275 275 273 271 267 267 266 266 266 266 266 266 266 266 266 267 268 270 271 272 272 272 272 273 274 275 276
279 278 278 277 277 276 275 275 275 275 274 275 274 273 272 272 273 272 273 273 273 273 273 273 273 273 273 272 272 273 273 274 275 278 280 280 281 281 281 281 280 280 276 276 276 277 278 280 279 277 276 276 275 274 272 272 274 274 273 272 269 263 265 264 264 264 264 265 265 265 265 265 266 268 269 270 271 272 271 271 272 273 274 275 275
278 277 276 276 275 274 274 273 272 273 273 274 274 274 274 273 274 273 273 274 274 274 274 274 273 273 272 272 272 272 273 273 274 275 277 279 279 280 280 279 279 279 277 276 277 279 279 278 277 276 275 273 270 268 267 267 271 271 270 269 263 263 263 262 262 263 263 264 265 264 265 265 266 268 269 270 269 269 269 270 270 271 272 273 272
277 276 275 274 273 273 274 273 272 272 272 272 272 273 273 274 274 273 274 274 274 274 274 274 273 272 272 272 272 272 272 272 273 274 274 275 276 277 277 277 278 278 276 276 277 275 275 274 274 274 273 273 272 271 269 269 265 264 261 261 262 262 263 261 262 262 263 264 264 264 265 266 267 268 267 268 268 268 269 270 270 271 272 272 271
277 275 274 273 273 273 274 273 273 272 272 272 272 272 272 274 274 274 274 275 275 274 274 273 273 272 272 272 272 271 271 272 272 273 274 274 275 275 275 275 275 274 274 274 272 272 271 273 271 267 266 264 264 260 259 260 262 262 260 260 260 262 265 266 265 261 262 263 264 265 265 266 265 266 267 267 267 268 269 270 270 270 271 271 269
274 273 273 272 272 272 272 272 273 272 271 271 272 273 273 274 274 275 275 277 278 277 275 275 274 274 273 272 271 271 271 271 272 275 275 277 275 274 274 274 274 274 275 275 270 268 266 265 264 263 262 262 261 259 258 259 259 260 259 259 258 259 258 259 259 261 262 263 263 264 265 266 265 266 266 266 266 267 269 270 271 270 270 270 268
273 273 272 272 272 271 271 271 271 271 271 271 271 270 274 276 274 273 274 276 277 278 279 275 275 275 274 274 275 274 273 273 276 278 278 279 278 278 277 277 277 275 276 277 270 264 263 262 261 261 260 259 259 260 260 260 260 259 259 263 261 259 260 260 259 261 263 263 264 264 265 265 265 265 265 265 266 268 269 270 269 270 269 267 266
273 272 272 272 272 271 271 271 270 271 271 271 271 271 270 271 276 276 276 276 277 277 278 278 278 277 275 274 275 277 277 278 278 279 279 279 279 279 278 278 278 277 277 270 265 263 262 261 261 260 261 261 261 260 261 260 260 259 258 258 258 259 260 259 259 261 262 263 264 264 264 264 265 265 265 265 266 266 268 269 270 270 268 267 266
274 273 272 272 272 271 271 271 270 270 270 270 270 271 271 270 271 276 276 276 277 278 278 278 279 278 278 276 274 275 278 279 279 280 280 279 279 279 279 278 278 278 277 273 263 261 261 261 260 260 261 260 260 261 261 260 259 258 258 257 257 258 258 258 260 259 261 262 263 263 263 264 264 265 265 265 265 266 267 267 268 268 268 267 266
274 273 272 272 272 271 271 271 271 271 270 270 270 270 271 271 271 271 274 277 278 278 278 279 279 278 278 278 278 277 278 279 280 280 279 279 279 278 278 278 278 277 276 267 263 262 261 260 260 260 261 259 259 259 259 258 257 257 257 257 256 257 257 259 261 260 261 262 262 261 263 263 264 264 264 264 265 265 266 267 268 268 267 266 265
273 273 272 272 271 271 271 271 271 271 271 271 271 271 272 273 274 274 272 273 275 277 279 279 279 278 278 278 278 278 279 280 280 279 279 278 278 278 277 275 276 276 270 262 262 262 261 260 260 260 259 259 258 258 258 257 257 256 256 256 256 256 258 260 259 260 260 260 259 260 261 262 263 262 262 263 264 265 266 267 267 266 266 265 264
270 270 270 271 271 271 271 271 270 270 270 270 270 271 271 272 273 274 273 273 273 273 274 275 278 279 277 277 278 279 279 279 279 278 278 278 278 277 277 271 268 264 263 260 261 261 261 261 260 260 259 258 257 257 256 256 255 255 255 255 254 255 256 258 259 260 259 258 258 259 260 261 261 262 263 263 263 264 265 266 266 266 265 265 264
271 270 270 271 271 270 270 270 270 270 270 270 270 271 271 271 273 274 274 274 274 273 272 274 274 277 278 277 278 278 279 278 278 278 278 278 277 277 269 266 264 262 261 260 261 261 261 260 259 259 258 257 256 256 255 254 254 254 253 253 255 255 256 258 260 260 259 259 259 260 260 258 260 261 262 263 263 264 265 266 266 266 266 265 265
270 270 269 269 269 270 269 268 269 269 270 268 268 268 269 270 270 272 272 273 272 272 272 270 269 271 275 273 275 277 278 278 278 278 277 277 277 273 268 266 265 263 261 261 260 260 259 259 258 257 257 257 256 255 254 253 253 253 256 255 254 254 256 259 260 260 258 258 259 258 257 258 259 260 261 262 263 264 265 265 265 266 266 265 265
270 270 269 268 267 268 267 267 267 269 268 267 267 268 268 268 268 269 270 271 271 270 269 269 270 271 269 269 274 274 275 276 276 276 276 276 272 268 265 264 264 263 262 261 261 260 259 257 256 257 257 256 256 254 253 252 252 251 252 253 254 256 260 260 260 258 259 258 257 258 258 258 258 259 261 261 262 263 264 265 265 264 265 265 264
267 269 270 269 269 268 268 267 267 267 267 267 267 267 267 267 267 268 270 270 269 269 268 268 269 269 270 270 270 272 273 271 271 270 270 270 268 265 264 263 262 262 262 261 260 260 258 257 257 256 256 255 255 254 253 252 251 251 252 252 253 253 255 254 254 254 256 256 257 257 257 257 258 258 260 261 261 263 263 264 264 264 264 264 263
267 267 268 269 267 268 267 267 267 267 267 267 267 267 267 267 267 268 269 270 269 269 268 268 268 269 269 269 268 270 269 269 269 268 268 266 264 263 262 262 262 262 260 259 259 259 258 258 257 257 256 255 255 254 253 253 252 252 252 253 253 253 254 253 253 254 255 257 258 258 258 258 258 259 259 260 261 263 263 263 263 264 264 263 263
267 267 266 269 268 267 266 266 266 266 267 267 267 267 267 268 268 268 269 269 269 268 268 268 269 269 269 268 270 270 269 269 268 267 266 265 264 262 261 262 262 261 261 260 260 259 259 258 257 256 256 255 254 254 253 253 253 253 253 254 254 255 254 253 253 254 256 257 258 258 258 258 259 259 258 260 262 263 263 263 263 263 264 263 263
267 266 266 266 267 266 266 266 266 267 267 267 267 267 268 268 268 268 268 268 268 268 268 268 268 268 268 269 270 271 269 267 266 265 264 264 263 262 262 261 261 260 260 260 259 259 258 258 257 256 256 255 255 254 253 253 253 253 253 253 253 254 253 252 253 253 255 256 257 258 257 258 259 259 260 261 260 261 262 262 262 262 262 262 262
268 268 267 266 266 266 267 267 267 266 267 267 267 267 268 268 268 268 268 268 268 268 268 268 267 266 266 268 268 269 268 266 263 263 263 263 263 262 262 261 260 260 260 260 259 259 259 258 257 256 256 256 255 255 255 254 253 254 254 253 253 254 254 254 253 254 254 255 256 258 258 258 258 258 258 259 260 261 261 261 261 261 261 261 260
267 267 267 266 266 266 267 267 266 266 267 267 267 267 267 267 268 268 268 268 267 268 268 268 267 265 264 266 267 267 267 265 263 263 263 262 262 262 262 261 260 259 259 258 257 257 257 257 257 256 255 255 255 254 254 253 253 253 254 253 254 255 254 253 253 253 254 255 256 257 256 257 258 258 258 259 259 259 260 261 261 261 261 261 261
266 266 266 265 265 265 265 266 266 266 266 266 266 267 267 267 267 267 267 267 267 267 267 267 266 264 264 265 266 266 266 265 263 262 262 262 262 261 261 260 260 259 258 257 257 255 256 256 256 255 254 254 254 253 253 253 252 252 253 253 253 254 255 253 251 253 256 257 259 259 257 257 256 256 257 258 259 259 259 260 260 261 261 261 261
263 263 264 264 264 264 265 265 265 265 265 266 266 266 267 267 267 267 267 267 267 267 267 266 266 265 264 264 265 265 266 266 264 263 262 262 261 261 261 260 259 259 259 258 257 255 256 256 256 255 255 255 254 253 253 252 252 252 252 252 254 254 254 253 253 255 257 258 259 259 258 257 256 257 258 258 258 258 259 259 260 260 261 261 261
262 262 263 263 264 264 264 264 264 264 264 265 265 265 265 265 265 266 266 266 266 266 266 266 265 265 264 264 265 265 265 265 264 263 262 262 261 261 260 259 258 258 258 258 257 256 255 256 256 256 255 255 254 253 253 252 251 252 252 253 252 253 252 252 254 255 257 258 259 259 259 258 256 254 255 256 256 257 258 258 259 259 259 260 261
260 261 261 262 262 262 263 262 263 263 263 263 264 264 264 264 264 264 265 265 265 265 265 265 265 265 264 264 264 265 265 265 264 263 262 261 261 260 260 259 258 257 258 257 256 255 256 256 256 255 255 255 254 254 253 253 251 251 251 252 252 251 252 254 252 253 254 255 257 259 259 258 255 252 253 253 253 256 256 257 258 258 259 259 260
259 259 260 260 261 261 261 261 262 262 262 263 263 263 263 263 263 263 264 264 264 264 264 264 264 264 264 264 264 264 264 263 263 262 262 261 260 259 259 259 258 258 258 256 256 255 255 255 255 255 255 255 254 254 254 253 252 252 251 251 252 254 255 256 255 254 256 257 258 259 258 256 253 252 252 252 254 254 255 256 257 257 258 259 259
258 259 259 259 260 260 261 261 261 262 262 262 262 262 262 262 262 262 263 263 263 263 263 263 263 263 264 263 263 263 263 262 262 262 261 260 260 259 258 258 258 258 257 257 257 256 255 255 254 254 254 254 254 254 253 253 253 253 252 252 254 255 255 256 257 257 257 256 258 258 257 255 252 250 250 250 250 252 253 255 257 258 258 258 257
258 258 259 259 260 260 260 260 260 261 261 261 261 261 261 262 262 262 262 262 263 263 263 263 263 263 263 264 263 263 262 262 262 261 261 260 259 259 258 257 257 256 257 257 256 256 255 255 254 254 254 254 254 253 253 253 252 252 253 254 255 255 256 257 256 258 259 259 258 258 256 255 252 252 251 250 249 249 254 255 256 256 256 257 257
Wind_Speed
5 5 5 5 6 7 6 6 7 6 8 9 10 9 8 8 9 9 9 8 9 9 8 8 8 8 8 8 8 7 8 6 5 7 7 7 6 7 6 7 8 6 6 4 3 4 5 6 5 5 4 6 5 5 5 5 4 4 3 2 2 2 2 3 6 12 10 2 6 7 8 9 10 7 14 14 12 9 10 10 12 11 11 11 10
5 6 6 6 7 7 7 6 8 8 8 7 7 8 8 8 9 9 9 7 8 10 9 8 8 8 8 8 7 7 7 7 6 7 8 9 7 6 7 7 8 6 5 6 4 4 5 7 6 5 4 5 4 5 3 3 3 3 3 2 2 3 1 2 5 5 15 11 5 5 4 6 12 8 9 14 16 13 12 12 11 10 9 10 11
4 5 6 6 6 6 6 6 6 7 8 7 8 8 7 7 7 10 9 8 5 8 9 9 9 8 8 8 8 7 7 7 6 7 8 9 9 6 6 6 7 7 7 5 4 4 7 7 5 3 3 5 4 3 3 3 3 3 3 2 3 3 3 2 3 7 10 14 7 7 8 7 7 13 12 10 11 12 14 14 13 11 9 10 11
4 4 4 4 5 5 5 6 7 7 8 7 8 7 8 8 7 9 9 8 9 6 8 9 9 9 9 8 8 8 7 7 7 7 8 8 9 8 6 6 6 6 7 5 5 6 6 6 4 3 3 4 4 4 3 3 3 3 3 3 3 3 3 2 3 5 8 12 12 8 8 10 8 8 10 9 9 12 12 13 11 12 13 10 12
4 4 5 6 4 5 5 5 7 6 7 7 8 8 8 8 7 10 9 8 8 9 6 7 9 9 10 9 9 8 8 8 9 7 6 6 8 8 7 7 7 6 6 6 5 6 6 5 3 3 3 5 4 4 4 4 3 3 3 3 3 3 3 3 4 4 7 11 14 10 7 7 8 8 8 13 14 13 12 11 11 13 14 10 9
4 6 5 7 6 6 5 5 6 7 8 8 9 9 9 8 9 7 9 10 8 7 9 7 9 9 9 9 8 8 8 8 8 8 8 7 7 7 7 7 7 6 6 5 5 5 5 4 4 4 4 5 4 3 2 3 3 3 3 3 3 3 3 4 4 5 6 9 10 15 11 9 11 9 6 7 11 13 15 16 13 11 12 15 11
5 6 6 6 7 6 6 6 7 7 7 8 7 8 8 8 9 9 7 10 10 9 8 9 7 9 8 8 8 8 8 7 8 8 8 7 8 8 8 7 7 6 5 6 5 5 5 5 5 5 5 4 3 3 2 3 3 3 3 3 4 4 5 5 6 7 7 9 10 8 10 8 7 12 10 9 10 8 11 13 18 15 14 14 16
5 5 6 6 6 7 5 5 7 7 7 8 8 8 8 8 8 8 9 10 10 10 11 10 8 8 8 7 7 7 8 8 7 7 7 7 8 7 7 8 7 6 6 5 5 5 5 5 5 5 5 4 3 3 3 3 2 2 3 3 4 6 6 6 6 7 8 9 10 11 10 11 9 7 9 9 9 7 6 9 13 16 15 15 16
6 6 6 7 6 6 7 6 6 7 8 8 8 8 8 8 8 8 8 8 7 8 9 10 10 8 7 7 7 6 7 7 6 8 9 7 7 8 7 7 7 7 6 6 5 5 5 5 5 5 6 8 10 7 5 4 2 3 3 3 4 4 5 5 6 6 6 7 10 10 11 10 8 10 12 11 12 13 12 9 11 12 13 14 16
7 6 6 6 6 6 6 7 7 7 8 8 8 8 8 8 8 8 8 7 8 8 9 8 8 9 10 8 6 6 6 5 8 10 8 8 8 7 7 6 6 6 7 6 5 5 6 5 5 8 7 7 7 7 6 5 5 3 3 3 4 5 5 6 6 6 7 8 8 10 13 12 10 10 11 12 11 11 12 11 13 13 12 14 13
6 7 6 6 6 7 7 7 7 8 7 7 7 7 8 7 7 7 7 7 9 9 9 9 8 8 9 9 8 7 6 6 12 12 13 12 8 7 7 6 6 6 6 6 6 5 5 5 5 5 4 4 3 5 5 4 5 6 7 7 7 6 6 7 6 6 7 8 8 8 10 14 13 10 10 11 11 11 10 10 12 11 12 13 17
6 5 5 6 6 7 6 7 7 7 7 7 6 6 7 7 8 8 8 9 8 8 9 9 9 8 7 8 8 7 6 9 13 13 13 12 9 7 7 7 6 6 6 6 5 5 5 4 4 3 3 3 2 2 3 5 5 6 7 8 9 11 10 8 8 8 7 8 9 8 9 11 13 10 9 10 11 13 12 11 10 12 12 14 13
5 5 4 5 6 5 5 7 6 7 7 7 7 7 8 7 8 9 9 8 8 9 9 9 8 7 8 9 8 7 6 11 14 14 13 13 12 8 6 6 7 6 6 6 5 5 4 4 3 3 2 3 2 3 3 4 6 8 8 9 9 11 11 12 12 9 8 9 9 11 9 10 13 11 10 12 12 14 12 11 12 12 12 12 13
6 6 6 6 6 6 7 7 8 7 7 7 7 8 8 8 7 7 8 8 9 8 8 9 8 7 7 8 8 7 6 11 14 14 13 13 12 9 6 7 7 7 7 5 5 5 4 4 4 3 2 1 2 3 4 4 4 3 2 3 5 7 10 11 12 13 11 8 9 11 11 8 11 10 11 12 12 12 10 12 12 13 14 14 17
7 7 8 7 7 7 8 8 8 7 7 7 7 8 9 8 8 8 8 9 9 10 10 9 7 7 7 7 8 7 6 13 15 14 14 13 13 9 6 6 7 6 5 5 4 4 4 3 3 3 1 2 3 3 4 3 3 3 4 5 6 5 5 5 4 5 6 6 8 10 11 8 9 11 10 9 9 9 9 11 11 12 13 16 16
8 8 9 9 10 9 9 8 8 8 8 8 9 9 8 9 10 8 8 7 6 6 5 6 8 8 7 8 8 8 7 14 14 14 14 14 13 7 6 7 6 5 5 5 4 3 3 3 3 2 1 3 5 7 7 5 3 4 5 5 4 4 5 7 11 10 9 9 9 10 10 12 15 13 13 12 10 9 9 8 9 9 12 12 12
11 11 11 10 10 10 9 10 9 9 9 10 10 10 10 9 8 7 9 8 8 8 7 6 6 8 8 7 8 7 7 11 15 14 13 14 9 6 6 7 6 6 5 5 4 3 3 3 3 1 3 4 6 8 8 8 3 4 5 5 5 5 5 6 8 11 13 15 16 18 18 18 18 18 18 18 14 12 8 9 9 11 11 13 13
10 9 9 8 8 9 10 11 11 11 10 11 11 8 6 6 7 7 10 10 9 8 8 8 6 6 8 7 7 9 7 10 15 14 13 12 8 6 5 6 6 5 5 4 4 3 4 4 2 1 3 4 5 7 8 6 3 4 4 5 6 6 6 5 5 6 12 14 15 16 16 16 16 16 16 17 16 12 8 9 10 9 12 11 13
11 11 9 8 8 7 7 7 8 9 10 9 8 9 9 9 7 6 7 7 8 7 7 8 7 6 5 6 8 8 8 9 14 14 13 12 9 5 6 6 7 5 5 4 4 3 3 3 2 2 3 3 6 6 7 6 3 2 3 5 6 6 6 8 7 7 6 6 6 6 7 9 8 7 8 15 15 12 9 8 8 9 11 11 11
5 5 6 7 7 8 7 8 8 9 10 7 7 7 7 8 8 8 7 7 8 7 7 7 9 6 5 5 5 5 7 7 10 15 13 13 12 6 5 7 7 7 5 5 4 3 4 3 2 3 2 4 4 5 6 7 3 2 3 4 6 7 6 5 6 8 7 7 7 6 6 6 6 6 5 5 6 8 7 6 7 8 9 11 11
6 6 6 7 7 8 7 8 9 8 7 8 7 7 7 8 9 9 9 8 8 8 8 7 8 7 5 4 5 4 4 7 9 15 14 14 13 9 5 5 5 5 5 5 4 4 3 3 3 3 3 3 3 5 5 6 5 3 4 3 5 9 10 5 7 10 7 6 7 7 7 6 5 5 5 5 5 6 6 7 6 7 8 10 11
6 6 7 7 7 7 7 5 6 7 6 7 8 7 5 6 7 8 8 9 10 10 8 7 8 7 5 4 4 4 2 3 7 12 14 14 12 11 6 5 6 6 6 5 4 4 3 3 2 3 2 2 3 4 5 5 6 3 4 8 11 13 8 6 6 5 5 6 6 6 7 7 8 8 8 7 6 6 5 6 5 6 7 7 9
7 7 7 8 8 8 7 8 8 7 7 7 8 8 6 7 7 8 9 9 10 10 9 8 8 7 6 4 3 2 3 3 8 7 13 13 13 11 10 7 11 5 5 5 5 3 3 3 4 4 0 2 3 3 4 6 5 4 8 9 10 13 10 5 7 6 6 6 6 6 7 8 9 10 10 10 10 9 8 7 8 8 7 7 8
7 8 8 8 8 8 8 9 8 8 9 9 9 9 8 8 8 8 9 10 10 10 8 8 7 8 7 5 4 3 3 3 8 9 9 13 11 12 11 10 9 4 4 3 3 3 3 3 2 2 3 2 3 4 6 5 5 7 8 9 11 10 5 6 4 5 7 6 6 7 7 7 7 8 10 10 11 12 11 10 10 11 10 9 9
7 7 7 7 7 6 6 7 8 8 9 10 11 10 10 10 10 8 9 9 10 11 9 9 9 9 6 6 5 5 4 5 4 8 11 10 11 10 10 10 9 10 5 4 4 2 5 6 4 3 2 3 5 6 6 6 7 7 8 10 9 4 5 4 5 5 6 6 7 6 6 6 7 8 10 11 11 10 10 10 8 7 8 9 7
7 7 7 7 7 7 8 6 5 6 7 8 9 10 12 12 11 10 9 9 10 10 10 9 9 9 8 5 5 5 5 5 5 4 6 7 7 9 10 9 8 8 8 5 7 7 6 6 6 5 4 6 5 4 3 3 7 8 9 9 4 4 4 4 4 5 5 6 7 7 8 8 8 8 9 8 9 10 11 12 12 13 13 12 13
7 6 7 6 6 7 9 8 7 6 7 7 7 8 8 9 9 11 11 11 10 9 9 10 9 9 11 6 6 5 6 5 6 6 5 5 4 6 6 6 8 8 5 3 4 4 6 5 5 5 5 5 5 4 3 5 5 5 4 4 4 5 4 3 4 5 5 6 7 7 7 7 7 7 8 8 9 9 9 10 10 10 12 11 11
8 7 8 7 7 7 8 9 10 8 8 9 9 8 7 8 10 12 14 13 12 11 10 10 11 13 15 9 7 7 7 6 7 8 8 7 6 5 5 4 5 5 5 4 5 4 4 5 6 6 6 5 3 2 2 2 3 3 4 4 4 5 5 6 5 3 4 4 6 6 7 7 8 8 8 8 8 9 9 9 10 11 10 11 12
5 5 6 6 7 6 7 8 8 8 8 7 6 7 10 11 11 8 5 5 9 13 14 11 10 10 12 11 10 7 7 9 10 9 9 11 9 8 7 6 5 6 7 10 6 4 5 5 5 4 3 1 1 1 2 2 2 1 2 4 3 4 3 3 4 5 5 5 6 7 8 8 8 8 7 8 8 9 9 9 9 8 8 8 8
6 6 6 6 6 6 5 6 6 6 7 8 7 5 2 3 3 4 6 4 1 3 3 7 9 11 10 9 10 10 13 10 14 18 16 17 16 14 11 11 10 7 9 15 8 5 5 6 5 5 3 3 4 3 2 1 2 1 1 3 3 3 2 3 4 4 5 5 6 6 7 8 9 8 8 9 9 7 9 11 9 9 9 9 9
6 6 6 7 8 8 7 7 7 7 7 8 7 8 5 2 2 2 2 3 4 3 5 4 9 10 8 8 5 4 8 16 21 19 19 18 17 16 15 14 14 14 14 10 5 6 5 6 5 5 5 5 4 4 3 2 1 2 3 2 2 3 4 3 4 5 5 5 6 6 6 7 8 8 9 9 9 9 8 6 7 7 8 9 9
8 8 8 6 7 8 7 7 7 8 7 6 7 7 7 6 3 4 5 5 6 7 7 8 11 13 11 9 9 5 11 17 20 20 19 18 16 16 15 14 14 14 16 12 6 5 6 6 6 6 6 6 6 5 4 4 2 1 2 2 2 2 3 4 4 4 4 5 5 6 6 6 7 8 8 8 10 9 8 8 7 7 7 7 7
7 6 6 7 7 7 7 7 7 8 8 9 8 7 8 9 10 7 4 7 8 9 10 11 13 13 12 13 13 11 13 16 20 20 19 18 17 15 14 14 14 14 15 8 6 6 5 6 7 7 7 7 6 6 5 3 2 2 2 2 3 3 3 5 4 3 3 4 4 5 6 6 7 7 8 8 9 9 9 8 8 7 7 8 8
5 6 7 8 8 7 7 7 7 8 7 7 8 9 10 10 10 9 9 6 5 6 8 11 12 13 13 14 14 14 16 19 19 19 18 18 17 16 14 10 13 14 10 7 7 7 7 7 7 7 7 6 6 5 4 3 2 1 2 2 3 3 4 5 3 3 2 4 4 5 5 6 7 7 7 7 7 7 7 8 8 8 7 7 8
5 6 9 8 7 7 7 6 6 6 6 7 8 8 8 7 6 8 11 12 12 12 9 9 12 14 11 11 13 15 17 18 19 18 18 18 18 18 16 8 7 3 4 3 6 7 8 8 8 8 7 7 7 6 5 4 2 2 3 3 3 3 4 4 3 2 3 4 4 4 5 6 6 7 7 8 8 8 7 7 8 7 7 8 8
5 5 5 7 7 6 7 7 7 7 8 8 6 7 6 6 8 9 8 7 7 8 6 7 6 10 14 12 15 16 17 18 18 19 18 19 20 20 11 9 7 7 6 6 7 7 7 7 7 7 7 7 6 5 4 4 3 4 4 3 3 3 3 4 4 2 3 4 4 4 5 5 5 7 7 7 8 8 7 8 8 7 6 7 7
6 6 6 6 6 6 6 5 5 6 5 4 5 6 6 6 5 5 5 7 7 7 7 6 5 5 8 6 11 15 17 16 17 18 19 19 22 14 9 10 10 9 8 8 7 6 7 7 7 7 7 7 6 6 5 4 4 4 4 3 2 2 3 4 4 3 3 3 4 4 4 5 5 6 7 7 8 7 7 7 7 8 7 8 8
7 7 7 6 5 6 6 6 6 7 6 6 6 7 7 6 6 6 6 8 7 7 8 8 8 10 11 10 9 8 10 13 15 14 15 16 12 9 9 9 9 9 9 8 8 8 8 7 7 7 6 6 6 5 5 5 5 5 4 2 2 3 6 6 5 3 3 2 3 3 3 4 4 6 7 7 8 8 8 7 7 7 7 7 6
5 5 6 7 6 6 6 6 7 7 7 7 7 7 8 7 7 7 8 7 7 7 7 8 9 10 10 9 8 9 10 9 11 11 11 10 8 8 9 8 8 8 7 8 8 8 7 8 7 6 5 5 5 5 6 6 5 5 3 2 3 4 5 6 6 4 3 2 2 3 3 4 4 5 6 6 7 7 8 8 7 7 7 7 6
5 5 6 8 6 6 6 6 6 7 7 8 7 7 7 8 10 10 9 8 9 10 10 11 12 12 10 10 11 11 12 13 12 11 11 10 10 9 9 9 9 10 10 10 8 8 8 7 6 6 6 6 5 5 5 5 6 5 3 4 4 5 6 6 4 3 3 3 2 3 3 4 5 5 5 6 6 7 7 8 7 7 6 6 6
4 4 4 5 5 5 5 6 7 7 6 7 7 8 10 10 9 8 8 10 10 10 11 11 12 10 10 13 18 19 14 14 13 11 11 11 10 10 10 10 9 9 9 10 9 8 8 7 6 6 6 6 6 6 5 6 5 4 4 4 4 5 6 5 4 3 4 3 3 3 3 4 4 5 6 6 8 8 7 7 7 6 6 5 5
4 4 5 5 5 5 5 6 6 6 7 7 8 9 8 8 9 9 10 10 9 9 10 10 9 8 8 17 21 23 12 8 7 8 8 8 9 9 8 10 11 12 11 12 10 9 8 7 7 6 7 6 6 6 6 6 6 5 5 5 6 5 5 5 4 3 4 3 3 3 3 3 4 5 6 7 6 6 7 7 7 6 6 5 5
5 5 5 4 5 6 6 6 5 6 6 7 8 7 7 7 8 8 9 9 10 10 10 10 9 6 7 12 17 20 11 8 7 9 9 9 9 9 9 11 11 10 10 8 7 7 7 7 7 6 7 7 7 7 7 7 6 6 5 6 6 6 5 4 3 4 3 4 4 4 3 2 3 4 4 5 6 7 7 7 7 6 6 6 5
4 4 4 5 5 5 5 5 6 7 7 8 7 7 7 8 8 9 10 10 10 10 10 10 8 7 7 9 12 12 11 10 9 9 11 10 10 11 10 10 12 10 9 9 8 7 7 7 7 6 5 5 6 5 6 6 6 6 6 6 6 6 5 5 5 4 3 3 5 4 3 2 2 3 5 6 6 6 7 7 7 6 6 6 5
4 4 5 5 5 5 6 5 6 7 7 6 7 8 7 8 9 10 10 10 10 10 10 9 8 8 9 10 12 14 14 13 12 10 11 11 12 12 11 12 12 11 10 10 9 9 8 7 7 7 7 6 6 6 6 6 6 6 6 6 6 6 6 6 5 3 3 4 5 5 4 3 3 3 4 5 5 6 7 7 7 7 7 6 5
5 5 5 5 5 5 6 6 6 6 7 7 8 8 8 8 9 10 9 10 10 10 10 9 9 9 10 11 12 12 12 11 11 12 10 10 11 13 13 12 11 8 9 11 10 11 11 9 7 7 7 7 6 6 6 6 6 6 6 6 7 6 6 5 4 3 4 5 6 5 4 3 3 3 5 5 5 6 6 7 6 6 6 7 6
4 4 5 5 5 5 5 5 5 6 7 7 7 8 8 8 8 9 9 11 10 9 10 9 9 10 11 11 12 13 12 12 12 12 12 12 12 12 11 11 11 10 9 9 8 11 11 9 7 7 7 6 6 6 6 6 5 6 5 6 6 6 5 5 5 5 5 5 5 5 5 5 4 2 5 4 4 6 7 6 6 6 6 6 6
4 5 5 5 5 5 6 5 7 7 7 7 8 8 8 8 8 9 9 9 10 10 10 9 9 9 9 11 10 10 10 10 10 9 9 9 10 10 10 11 12 12 10 8 9 10 8 7 7 7 7 7 7 6 6 6 6 6 5 6 6 6 7 6 6 6 5 5 6 7 6 5 4 3 2 3 4 5 5 6 6 6 6 6 6
4 4 5 5 5 6 6 6 7 7 7 7 7 8 8 8 8 8 8 9 9 9 9 10 9 9 10 10 10 10 9 8 9 9 9 9 10 11 12 10 9 9 8 10 11 10 8 7 7 6 7 6 6 7 6 6 6 6 6 6 7 9 11 11 8 6 6 6 6 7 6 5 4 3 3 3 4 4 5 6 6 7 6 5 6
5 5 5 5 6 6 6 6 6 6 6 6 7 8 7 7 8 8 8 9 9 9 9 9 9 9 9 10 9 10 10 10 11 11 10 11 11 10 11 10 9 9 10 11 11 10 7 7 7 7 7 7 6 6 6 6 6 6 6 7 8 11 11 13 12 10 8 5 6 6 6 5 3 3 4 4 4 4 5 6 6 6 6 6 6
6 5 5 6 6 5 5 6 6 6 6 7 7 8 8 8 9 8 8 9 10 10 9 9 9 9 10 10 9 10 11 11 10 10 10 10 10 10 12 13 11 10 9 9 10 9 8 7 7 8 8 7 7 6 6 6 6 6 7 9 11 12 13 12 8 9 11 8 6 7 5 5 4 5 4 4 3 3 6 6 6 5 5 5 6
Wind_Direction
186 195 176 183 169 175 170 165 165 162 162 169 166 163 154 151 152 144 134 141 137 134 134 137 136 134 134 133 129 131 126 121 122 120 114 116 107 112 115 110 111 114 113 100 91 88 85 83 68 52 46 57 46 40 37 29 29 35 50 63 355 319 333 291 279 293 298 158 331 328 338 335 328 347 326 327 326 328 323 320 322 322 316 312 313
191 176 180 172 177 170 171 169 162 159 162 159 151 146 146 145 137 131 132 134 137 134 134 135 135 135 131 128 128 128 127 130 138 129 126 118 110 116 121 120 116 123 115 101 86 83 87 81 59 49 40 65 53 46 47 32 42 33 27 56 7 338 305 295 283 281 298 310 316 319 324 350 319 331 330 326 324 326 327 324 316 311 311 312 315
182 171 168 170 172 165 158 157 153 155 149 146 140 140 133 127 138 133 131 132 126 133 138 138 138 133 128 131 131 132 134 136 142 131 129 129 127 127 127 124 122 120 104 101 99 99 80 77 68 63 55 66 59 52 53 40 40 38 13 18 11 332 321 302 303 304 309 305 321 328 335 334 327 320 325 322 314 319 322 323 321 316 313 314 311
155 157 152 140 135 135 142 141 143 146 145 141 135 129 130 128 129 125 129 133 132 131 138 139 135 135 132 132 133 136 137 137 135 131 133 132 126 124 122 113 109 106 107 106 98 88 90 81 69 67 75 75 60 46 38 35 32 17 12 350 356 334 318 320 291 286 303 308 315 333 327 326 319 314 312 310 318 322 321 313 312 313 313 315 313
138 130 131 126 123 128 131 138 136 133 128 128 129 130 132 131 131 134 132 130 134 133 134 135 133 135 138 140 141 144 146 142 133 126 120 119 120 121 118 112 107 105 102 101 98 97 90 94 98 89 74 74 52 45 23 23 8 10 6 342 348 324 319 307 292 284 298 304 308 314 323 311 309 312 322 328 329 325 317 312 313 307 305 296 290
139 137 137 135 133 132 135 133 135 134 133 133 140 141 139 138 137 137 139 134 135 139 139 144 140 137 135 141 144 144 142 136 129 128 127 124 118 114 113 109 108 106 102 101 102 96 100 101 92 83 72 67 54 41 31 17 7 8 1 348 335 326 318 308 296 297 300 298 306 311 325 332 324 317 327 328 324 322 323 320 315 311 313 314 308
143 141 144 143 141 145 147 145 139 140 143 141 140 140 140 139 140 141 144 141 144 144 145 137 136 131 137 141 145 142 132 126 124 125 126 123 120 118 113 108 106 103 103 105 100 98 97 93 83 73 70 67 57 40 33 16 21 9 345 347 334 334 327 326 324 318 313 310 308 302 307 313 320 314 325 325 311 306 314 321 320 320 316 316 316
147 144 146 145 150 148 144 143 141 141 139 142 144 144 140 140 142 142 145 148 149 150 148 138 128 129 138 134 131 128 126 123 123 122 121 122 118 115 116 115 113 109 104 96 94 91 87 82 77 70 66 60 65 40 42 26 16 12 334 352 337 333 328 326 324 322 322 319 313 312 311 313 315 301 306 315 312 307 318 312 308 315 318 318 315
155 155 158 156 155 148 142 143 138 138 141 142 142 145 144 143 145 147 148 144 142 143 133 127 130 128 125 127 127 125 124 129 133 134 127 120 116 115 116 117 117 114 105 95 86 83 78 71 67 60 55 54 43 33 25 16 26 2 341 337 320 324 321 318 315 312 306 310 312 310 310 312 314 322 324 327 329 319 315 314 303 306 311 307 308
160 163 165 158 148 150 149 147 149 147 149 152 152 148 145 145 145 144 142 140 136 129 120 123 131 136 133 129 124 122 122 126 135 127 123 127 123 116 111 112 114 113 110 102 89 80 74 69 59 53 53 54 35 28 23 12 3 348 319 322 328 327 320 313 309 307 304 306 311 315 313 312 318 322 316 310 307 307 314 323 318 316 311 305 301
172 165 168 156 155 152 153 159 155 158 156 148 147 146 143 141 137 133 133 135 130 124 127 133 137 139 138 136 131 124 124 131 133 125 123 119 118 120 119 116 112 107 106 108 102 87 73 72 65 55 60 50 20 13 15 3 346 336 335 332 328 324 317 312 301 300 303 302 305 306 305 307 310 313 307 307 309 315 318 318 312 312 319 323 317
174 179 165 160 165 164 162 156 157 152 144 146 145 141 139 141 142 142 140 134 129 128 136 141 139 138 131 127 123 124 124 131 126 123 119 117 118 119 121 118 115 111 110 105 102 96 94 83 76 84 66 49 358 313 297 292 308 327 331 326 323 318 311 305 308 309 309 306 304 300 306 305 307 311 311 317 322 323 320 315 314 317 314 312 306
173 171 160 165 165 160 154 158 154 150 154 150 149 146 146 144 146 150 147 137 131 140 145 140 141 136 132 128 122 122 121 127 124 122 119 118 118 115 116 119 116 116 108 100 96 96 94 92 88 70 73 27 323 280 260 268 277 281 313 322 318 309 307 307 304 301 303 301 302 300 299 303 306 310 323 327 324 313 316 318 320 310 307 303 303
170 169 160 171 168 164 162 164 161 160 154 152 151 152 153 157 154 144 134 135 141 140 140 140 137 134 131 125 121 121 120 129 125 120 119 120 120 115 117 115 110 107 104 98 95 98 101 102 89 63 49 358 277 272 272 270 275 279 294 317 301 298 305 305 305 305 303 295 292 292 300 303 303 315 326 320 312 314 317 316 314 314 318 310 307
177 173 174 174 171 171 169 169 164 161 158 155 154 159 160 155 153 148 145 148 149 151 149 143 139 130 127 125 121 122 129 132 126 123 122 123 121 116 117 113 109 105 97 96 102 100 105 113 102 90 39 304 261 292 298 302 310 312 314 304 299 293 299 310 306 301 292 292 293 294 304 316 314 312 309 309 306 307 305 304 317 314 301 295 288
183 179 184 181 180 178 172 170 164 160 160 160 164 167 167 164 154 146 135 129 122 122 115 122 134 134 131 130 123 122 129 133 128 126 126 127 125 121 121 117 113 104 97 101 100 96 113 118 111 95 338 271 286 322 334 334 324 316 310 309 313 326 322 310 305 304 304 304 305 309 312 310 310 311 314 317 317 309 312 317 304 292 300 299 302
193 191 189 184 182 175 172 168 166 166 167 168 173 171 165 158 151 143 137 140 139 140 140 136 137 135 134 131 125 122 126 135 131 129 129 132 128 126 125 121 112 110 110 109 116 110 116 106 111 125 257 266 289 328 335 337 329 326 332 332 325 314 302 285 295 312 314 314 312 309 307 310 313 317 322 324 324 327 326 312 312 316 312 315 312
200 191 192 183 178 175 175 172 170 171 173 179 176 168 153 139 147 152 150 148 143 142 136 127 125 130 134 135 139 134 134 138 136 133 133 138 138 133 135 124 116 118 122 121 122 125 111 115 116 224 261 262 310 334 335 350 358 354 344 329 317 309 302 317 329 320 317 313 310 309 311 315 321 328 330 329 328 330 317 308 311 311 314 312 310
197 193 186 173 171 171 170 172 170 170 175 177 171 165 162 154 141 132 134 133 134 133 132 127 122 117 124 130 134 131 132 141 143 137 137 138 136 134 136 127 125 130 136 139 137 136 143 152 174 244 237 290 325 336 346 0 19 16 353 320 312 315 322 336 328 322 314 306 301 305 306 321 325 324 323 328 327 321 305 304 318 318 313 311 306
170 161 159 160 161 164 167 168 170 172 174 164 162 160 144 139 148 141 133 132 132 131 126 128 128 125 123 126 127 131 134 140 147 145 144 145 148 143 136 131 137 144 152 151 147 158 159 175 226 244 286 316 340 349 357 358 9 28 340 312 319 321 332 334 324 318 312 306 304 313 318 320 313 311 305 301 301 299 318 319 310 306 299 300 304
157 157 149 154 161 165 166 172 169 170 166 162 149 143 149 148 142 140 137 132 128 127 128 126 120 120 120 125 127 131 141 143 153 153 152 152 150 143 137 136 142 149 150 155 157 159 167 173 223 240 291 336 356 358 6 4 2 20 335 324 327 322 333 334 318 319 306 312 324 325 319 316 311 308 306 301 301 305 297 312 297 292 301 304 308
138 146 151 156 159 160 162 158 156 154 145 141 147 143 132 130 137 136 135 138 136 132 132 129 127 123 122 128 131 129 117 148 153 160 159 156 151 148 141 150 156 153 147 150 157 164 167 183 224 250 302 4 12 12 14 12 8 21 330 338 335 338 343 331 309 314 325 329 325 320 322 329 332 331 324 317 310 301 297 298 297 301 299 294 296
145 148 151 156 161 161 159 156 155 150 148 148 143 141 136 134 133 136 137 135 135 136 138 139 135 136 134 139 141 132 149 167 167 164 164 159 152 154 157 157 158 152 153 153 155 165 165 192 245 251 66 50 37 28 23 16 16 346 347 344 346 348 348 325 330 335 331 326 325 328 333 334 334 331 330 329 323 321 321 318 315 311 299 288 295
149 154 163 166 161 164 163 159 154 154 151 147 143 143 147 144 144 150 151 146 146 145 151 151 149 154 156 151 157 162 164 179 171 172 169 161 160 162 162 161 156 139 140 147 135 170 184 203 214 137 103 79 53 47 27 17 0 351 348 350 357 354 340 337 335 334 328 325 334 336 332 324 320 321 324 320 317 322 323 324 323 320 316 316 314
154 163 165 165 164 160 154 159 159 156 157 153 153 155 153 157 153 166 158 159 159 159 164 166 167 166 159 159 158 166 169 171 187 178 169 166 168 166 164 163 159 156 146 156 163 189 213 204 156 130 126 92 64 48 27 2 350 347 348 357 360 341 337 330 334 333 336 336 332 321 312 314 312 306 303 307 310 314 319 319 312 297 303 305 304
163 167 165 163 163 153 152 151 152 156 159 168 168 169 165 169 165 165 168 168 169 166 166 172 173 172 160 146 157 155 163 170 177 182 175 174 171 167 162 163 165 160 158 171 190 203 184 149 152 118 88 77 61 47 31 337 344 344 350 352 337 333 324 337 338 344 329 328 323 319 313 311 314 306 302 308 320 329 330 328 330 332 336 336 335
162 162 162 157 152 161 163 164 162 162 167 168 168 171 174 174 168 168 174 171 174 173 171 175 172 168 163 159 150 158 166 172 180 182 182 172 171 166 160 163 169 167 162 161 156 126 133 132 141 137 102 83 80 48 19 348 343 329 329 323 323 324 322 331 337 321 318 314 311 307 306 304 301 309 324 330 330 329 330 324 323 325 330 333 330
166 170 168 163 168 173 175 169 168 173 180 176 173 177 189 186 180 180 179 180 175 181 176 176 178 175 168 153 159 163 178 183 188 182 179 172 172 158 155 169 180 159 165 131 127 130 115 129 95 63 62 39 37 17 336 313 301 305 315 315 314 315 317 326 322 297 293 302 301 306 309 316 319 322 325 331 328 325 325 322 325 324 331 334 335
152 158 162 161 174 178 175 177 179 177 179 191 203 197 186 188 192 201 220 206 192 179 178 185 186 182 170 164 154 169 179 195 200 181 172 173 171 163 171 180 183 176 165 141 117 104 112 104 98 78 84 115 215 228 254 249 270 271 299 296 297 303 300 326 337 333 323 323 327 324 323 321 317 320 326 329 332 328 325 324 321 321 325 338 333
156 172 171 175 172 169 174 176 182 180 182 187 187 211 251 217 231 210 200 194 199 4 204 191 185 169 172 184 179 173 193 196 167 172 177 177 178 177 179 184 189 168 180 161 140 134 130 132 135 154 179 177 209 214 227 259 274 288 281 319 319 294 309 327 319 317 322 325 320 323 325 322 317 326 332 333 325 323 327 330 325 329 333 341 335
172 173 174 187 182 181 177 181 185 187 188 187 188 188 187 190 176 118 144 180 187 189 172 127 160 184 177 160 173 117 125 146 165 174 175 176 175 178 181 190 183 178 173 134 113 142 140 151 172 178 193 186 198 206 212 213 260 294 290 286 290 313 322 319 305 315 322 321 324 326 321 319 321 328 332 329 324 320 317 312 315 326 339 337 333
181 188 187 184 178 184 185 186 183 186 191 187 191 188 186 181 182 182 173 186 192 188 181 175 175 178 187 167 149 144 156 160 166 173 175 174 177 180 185 186 183 181 175 150 126 151 155 169 177 190 185 195 199 199 203 193 205 232 266 288 295 300 317 305 302 321 312 318 325 325 318 319 323 326 325 323 322 315 316 324 331 335 338 332 329
185 181 181 180 182 184 186 190 192 190 190 188 193 190 189 189 187 183 177 185 183 180 186 183 177 175 170 170 168 154 158 166 169 171 172 173 174 177 179 180 180 180 171 152 145 163 173 182 189 190 190 193 199 191 202 195 182 206 240 257 276 292 294 284 302 300 303 320 323 307 311 322 324 322 320 316 316 314 319 325 327 332 333 334 331
190 178 180 184 182 190 192 195 194 201 200 199 200 198 203 200 200 181 166 155 186 206 201 188 177 172 174 173 168 161 165 170 170 169 170 172 173 171 170 171 175 176 163 167 164 179 179 189 197 195 197 192 196 196 189 193 186 209 234 255 254 266 276 283 297 295 314 313 305 301 312 320 324 322 317 313 309 306 314 326 328 334 338 341 336
189 184 180 181 189 193 192 192 196 197 199 204 208 210 211 211 200 189 187 185 186 185 182 189 192 184 178 176 173 171 175 174 172 172 174 175 171 169 164 158 160 158 142 139 176 182 184 193 195 197 191 193 195 185 187 190 192 219 234 242 261 264 279 288 290 298 310 308 306 310 318 325 319 315 314 314 316 318 320 324 327 333 332 336 337
189 193 190 187 188 189 187 192 190 195 201 206 207 215 213 210 207 207 203 200 189 178 178 180 170 189 182 182 183 182 180 177 176 178 179 178 172 168 157 176 173 186 185 187 184 199 194 196 190 197 189 190 186 186 188 185 203 209 225 226 251 273 284 289 281 292 304 296 299 312 320 314 313 311 307 305 308 311 311 318 323 326 331 334 335
190 196 191 191 188 188 188 185 194 195 199 194 203 219 221 222 228 222 210 203 193 188 175 141 121 177 188 187 187 189 188 186 183 183 185 184 181 179 177 178 187 181 190 187 182 192 198 207 194 194 195 187 190 180 186 198 204 205 227 224 228 265 270 258 255 287 289 293 301 303 303 303 307 308 309 310 311 310 310 315 318 322 330 337 339
198 198 196 184 176 175 176 186 191 186 192 193 203 206 217 217 212 210 209 208 198 181 170 177 183 184 180 180 170 169 183 187 189 193 195 190 188 179 180 181 183 190 196 186 183 188 202 202 197 195 200 186 184 182 185 203 204 203 203 216 232 233 261 266 278 267 262 270 279 289 293 300 300 306 307 308 309 310 314 317 320 321 326 339 344
213 204 190 178 180 184 186 181 180 184 195 198 202 202 211 207 208 210 213 207 195 188 190 186 194 197 191 170 165 172 167 184 192 200 195 198 188 175 174 182 187 200 193 183 179 187 195 201 202 192 195 189 182 186 187 203 201 204 202 195 233 241 255 258 251 245 246 253 274 279 290 295 301 301 303 301 303 306 310 315 320 321 328 332 338
204 209 199 190 187 189 182 190 189 193 199 194 206 203 213 212 214 213 211 205 205 200 197 197 202 204 183 170 177 175 186 193 195 196 195 195 191 189 184 187 193 196 185 154 178 187 191 201 193 192 193 192 187 192 193 196 203 203 192 204 220 238 238 238 242 246 245 252 271 290 301 305 306 305 297 296 296 304 310 316 316 319 317 319 322
219 207 208 211 203 190 190 189 199 204 201 205 205 203 214 216 218 219 218 218 216 212 210 211 213 204 186 192 187 185 189 194 194 193 198 195 193 192 197 194 189 189 178 172 181 184 191 190 190 190 190 191 190 188 196 198 204 200 201 217 227 240 237 239 240 247 253 255 260 267 288 293 306 306 304 304 307 309 304 307 308 310 313 315 319
197 200 204 212 202 203 206 214 211 207 208 208 211 217 220 219 217 217 219 222 224 221 221 223 221 205 197 198 197 197 198 206 190 195 200 200 199 204 200 197 183 172 168 169 176 184 181 189 190 185 191 193 189 193 190 201 203 204 207 215 222 230 237 235 234 241 249 249 250 250 257 285 307 308 306 307 301 299 304 307 308 309 312 316 316
205 206 205 193 199 210 216 220 205 209 217 220 225 223 225 224 227 226 229 229 226 221 224 223 219 192 193 192 198 202 207 205 195 199 199 202 204 205 202 197 186 181 171 171 174 174 179 183 187 191 194 196 191 188 192 198 190 197 204 212 218 224 233 234 235 241 244 252 249 254 253 267 296 295 297 299 299 300 301 303 305 309 312 314 310
207 210 206 206 208 213 217 211 214 219 221 226 229 225 221 224 227 225 226 229 229 230 229 229 214 194 195 192 196 204 212 205 201 203 203 202 204 203 201 189 173 175 174 169 166 169 172 182 190 194 193 196 192 190 195 192 182 190 201 208 218 221 226 227 226 227 240 258 264 258 250 259 286 295 303 307 301 302 304 305 306 309 311 313 311
213 211 213 216 217 216 223 219 220 226 225 224 226 227 222 222 226 228 226 228 229 226 226 222 207 197 195 196 198 203 207 205 203 203 206 204 204 202 188 180 171 182 177 167 149 150 173 186 190 191 197 201 192 196 201 199 193 198 197 198 207 222 221 217 217 222 243 265 272 270 266 267 276 290 300 298 306 306 301 300 302 308 308 309 314
213 215 218 220 222 225 223 224 224 224 226 228 231 232 227 222 227 228 229 232 230 227 227 220 211 206 204 204 204 205 208 204 204 206 208 206 195 180 155 171 175 191 185 161 159 160 163 181 192 193 199 197 193 198 202 199 201 202 203 205 212 221 222 219 218 229 248 252 259 264 269 262 260 266 291 303 303 298 288 292 296 294 298 303 305
214 223 226 229 230 233 230 226 221 227 227 231 232 236 234 233 232 231 231 228 227 227 228 223 215 214 210 209 208 210 206 203 204 202 204 201 194 190 187 182 174 184 178 174 173 157 165 189 194 194 195 194 193 197 198 200 200 205 205 209 213 222 229 229 225 227 237 254 264 265 257 254 256 262 288 300 292 290 291 290 289 295 297 297 296
226 229 236 236 240 241 241 229 235 235 235 234 236 235 237 235 233 233 234 232 231 231 229 226 221 218 215 218 218 216 212 211 208 206 201 194 193 188 179 171 173 180 182 184 160 161 186 194 191 189 191 194 194 198 200 200 204 203 210 209 212 212 218 219 225 227 229 241 250 252 252 249 236 240 263 276 281 286 291 290 296 291 290 291 294
226 231 237 237 237 239 238 235 237 235 237 239 240 241 240 237 238 237 235 233 233 231 228 228 228 221 220 222 217 217 215 209 207 203 197 196 189 180 171 184 187 190 189 179 163 171 189 194 193 193 196 198 198 197 197 197 203 205 211 210 213 215 221 224 225 221 223 229 245 249 245 227 215 231 247 260 270 274 275 282 284 286 287 286 289
230 233 236 239 241 244 241 242 243 246 246 243 242 248 244 242 242 240 236 236 236 234 231 228 226 224 221 221 216 215 210 211 209 204 195 183 182 178 179 184 186 190 179 182 163 172 192 193 193 198 200 202 201 201 199 200 201 204 206 211 213 220 224 230 234 234 229 227 235 243 221 206 215 227 233 242 252 268 273 277 279 288 287 291 286
237 238 240 241 245 246 245 246 249 249 246 244 246 247 248 246 246 242 238 236 236 236 233 229 227 224 222 221 217 213 213 215 211 203 193 191 193 187 179 171 181 185 188 170 166 167 182 190 194 188 195 202 204 204 203 203 202 202 207 212 218 224 229 234 233 235 235 235 237 233 214 219 224 238 245 243 245 255 266 275 282 283 283 283 287